Погода в Жезказгане

Погода в Жезказгане : погода сейчас, прогноз погоды и архив. Всё, что Вы хотите узнать о погоде в Жезказгане!

Хотите узнать прогноз погоды в Жезказгане? Тогда Вам сюда: Погода в Жезказгане

Поиск расширенной информации на нашем сайте:

Другие новости

Новости СМИ2

Главная страница сайта

Новости сайта

03.07.2017

Напоминаем, что на нашем специализированном сайте Метеоцентр.Азия вы можете получить высокодетализированные автоматические прогнозы погоды по пунктам России, СНГ и мира в авиационном формате (включающие направление и скорость ветра, видимость, явления погоды, количество и форму облачности, нижнюю и верхнюю границу облачности).


Погода в Жезказгане - сегодня

Время (UTC), дата Ветер
(°,м/с) 
Видим.   Явления Облачность Т
(°С)
Тd
(°С)
f(%) Тe
(°С)
Pmin
(гПа)
dP
(гПа)
Po
(мм)
O2
(г/м3)
Тmin Tmax R s Состояние
почвы
21 16.10.18 240 (ЮЗ) 4000 м  дымка  ясно 
-5.9 -7.8 86 -6  1030.9  740  306           
00 17.10.18 тихо ()   4000 м  дымка  ясно 
-7.3 -9.4 85 -7  1032.4  1.2  741  308           
03 17.10.18 230 (ЮЗ) 20000 м    8/0 средняя 
[Ac lent]
-5.7 -7.9 84 -5  1033.5  1.3  742  306           
06 17.10.18 230 (ЮЗ) 20000 м    8/6 600 м средняя 
[Sc|Ac lent]
+1.7 -4.8 62 1031.7  -0.5  741  297  -7.4         
09 17.10.18 240 (ЮЗ) 20000 м    8/8 600 м кучево-дожд., средняя, верхняя 
[Cb cap|Ac lent|Ci fib]
+4.2 -5.9 48 +2  1029.1  -2.1  740  294           
12 17.10.18 230 (ЮЗ) 20000 м  слаб. снег  10/10 600 м 
[Sc]
+1.6 -3.8 67 -2  1027.9  -1.6  739  296           
15 17.10.18 230 (ЮЗ) 10-15  20000 м  {снег}  10/10 600 м 
[Sc]
+1.2 -1.7 81 -3  1026.2  -1.6  737  296    +4.4       
18 17.10.18 240 (ЮЗ) 10  20000 м  {снег}  8/8 600 м 
[Sc]
+2.7 -2.8 67 -2  1022.7  -3.2  735  294    +0.4  0.0     
21 17.10.18 240 (ЮЗ) 12-18{19}  20000 м    8/8 600 м 
[Sc]
+4.1 -4 56 1019  -3.3  733  291           
00 18.10.18 240 (ЮЗ) 12-18{19}  20000 м    4/0 средняя 
[Ac lent]
+4 -3.5 58 1016.1  -2.8  731  290           
03 18.10.18 230 (ЮЗ) 10-17  20000 м  {ливн. осадки}  9/8 600 м кучево-дожд., средняя 
[Cb cap|Ac lent]
+2.6 -1.2 76 -2  1014.8  -1.5  729  291           
06 18.10.18 230 (ЮЗ) 11  20000 м  {ливн. осадки}  10/10 600 м кучево-дожд. 
[Cb cap]
+2.5 -0.8 79 -2  1013.4  -1.3  728  291  +0.1    0.5     
09 18.10.18 230 (ЮЗ) 10-15{16}  4000 м  дымка{ливн. осадки}  9/8 600 м кучево-дожд., средняя 
[Cb cap|Ac lent]
+3.8 +2.3 90 1013.5  0.3  729  289           
12 18.10.18 250 (З) 8{15}  20000 м  {ливн. осадки}  9/9 600 м кучево-дожд. 
[Cb cap]
+5.1 -0.7 66 +2  1015.1  1.7  730  289           
15 18.10.18 250 (З) 20000 м    5/5 600 м кучево-дожд. 
[Cb cap]
-0.5 -3.2 82 -4  1018  731  296    +5.7       
18 18.10.18 220 (ЮЗ) 20000 м    ясно 
-1.8 -3.9 86 -5  1018.3  731  297    +5.7     
21 18.10.18 270 (З) 20000 м    8/8 600 м 
[Sc]
-0.4 -3.4 80 -1  1017.7  -0.3  731  295           
00 19.10.18 260 (З) 20000 м    8/8 600 м 
[Sc]
+1.4 -3 72 +1  1018.2  0.7  732  294           
03 19.10.18 270 (З) 20000 м    8/6 600 м кучево-дожд., средняя, верхняя 
[Cb cap|Ac lent|Ci fib]
+0.4 -3.2 77 +1  1019.1  0.7  732  295           
06 19.10.18 300 (СЗ) 20000 м    8/8 600 м кучево-дожд., средняя 
[Cb cap|Ac lent]
+4.6 -2.3 61 +3  1020.2  1.7  734  291  -1.9         
09 19.10.18 310 (СЗ) 20000 м    9/9 600 м кучево-дожд. 
[Cb cap]
+5 -3.2 55 +3  1021.4  1.2  734  291           
12 19.10.18 300 (СЗ) 20000 м    8/8 600 м кучево-дожд. 
[Cb cap]
+6.2 -4 48 +4  1021.9  0.7  735  290           
15 19.10.18 270 (З) 20000 м    6/6 600 м 
[Sc]
+1.8 -3.5 68 1023.3  0.7  735  295    +6.7       
18 19.10.18 230 (ЮЗ) 20000 м    8/8 600 м кучево-дожд. 
[Cb cap]
+2.5 -2.3 71 +1  1023.7  0.5  736  294    +6.7       
21 19.10.18 220 (ЮЗ) 20000 м    8/8 600 м кучево-дожд. 
[Cb cap]
+3.3 -0.5 76 +2  1022.4  -1.1  735  293           
Время (UTC), дата Ветер
(°,м/с) 
Видим.   Явления Облачность Т
(°С)
Тd
(°С)
f(%) Тe
(°С)
Pmin
(гПа)
dP
(гПа)
Po
(мм)
O2
(г/м3)
Тmin Tmax R s Состояние
почвы

Для получения пояснительной информации подведите курсор к названию столбца.

ПОГОДА в Жезказгане - архив

Всё, что Вы хотите узнать о погоде в Жезказгане - удобно и подробно!

Выберите нужную дату (начиная с 1 января 2015* года) и нажмите кнопку "Найти".
Будут отображены архивные сводки погоды по пункту Жезказган, начиная с указанной даты.


Отображать данные в формате CSV (для использования в таблицах Excel)


Внимание! Наш архив погоды предназначен исключительно для личного некоммерческого использования в познавательных целях. Если Вам необходимы официальные справки о состоянии погоды (для производственных, юридических, коммерческих и т.п. целей), обращайтесь в органы Росгидромета.

*Примечание: данная дата относится к архиву по метеостанциям СССР (Россия, СНГ, Балтия).
Архив по метеостанциям Зарубежной Европы и Азии (кроме Китая) хранится 10 дней, по другим регионам земного шара (Китай, Африка, Америка, Австралия, Океания) - 1 день.

Жезказган - район местоположения метеостанции


Название, широта, долгота, высота метеостанции:
Жезказган 47.8°ш. 67.7°д. 346 м над ур. моря [Казахстан]

Дополнительная информация

В oтличие oт бoльшинства пoгoдных сайтoв мы публикуем пoдрoбную метеoинфoрмацию в детальнoм прoфессиoнальнoм фoрмате.

Характеристики температуры и влажнoсти вoздуха измеряются на высoте 2 м в тени вдали oт зданий и деревьев.
Скoрoсть ветра измеряется на высoте 10 м (на урoвне рoста челoвека скoрoсть ветра ниже в 1.5-2 раза). Если метеoстанция нахoдится в гoрoде или в лесу, тo скoрoсть ветра занижена на 2-4 м/с пo сравнению с oткрытым местoм. Скoрoсть ветра над акватoриями крупных рек и oзёр, а также на вершинах хoлмoв на 2-5 м/с выше, чем в oбычных услoвиях.
Атмoсфернoе давление в разных тoчках местнoсти мoжет значительнo oтличаться oт давления на метеoстанции, в зависимoсти oт услoвий рельефа (при пoдъёме на 10 м давление пoнижается примернo на 1 мм рт.ст.).